Location: Ab? ar R?sh Ba?r?
(24.1861°N, 32.8847°E)
Time: 11:26:09
(UTC+00:00)

COSMOS 2428 - Pass Details

Date: 24 October 2021
Orbit: 844 x 857 km, 70.9° (Epoch: 04 December)

Event Time Altitude Azimuth Distance (km) Brightness Sun altitude
Rises 17:36:48 0° 216° (SW) 3,390 6.3 -33.1°
Reaches altitude 10° 17:39:24 10° 223° (SW) 2,456 5.5 -33.6°
Maximum altitude 17:44:37 39° 291° (WNW) 1,244 3.9 -34.8°
Enters shadow 17:44:57 39° 300° (WNW) 1,251 3.8 -34.9°
